Location: Fontevrault
(47.1823°N, 0.0493°E)
Time: 04:35:53
(UTC+00:00)

Cosmos 1459 Rocket - Pass Details

Date: 24 October 2021
Orbit: 936 x 1000 km, 83.0° (Epoch: 01 December)

Event Time Altitude Azimuth Distance (km) Brightness Sun altitude
Rises 21:49:17 0° 255° (WSW) 3,652 7.3 -47.4°
Reaches altitude 10° 21:54:52 10° 296° (WNW) 2,693 6.8 -48.1°
Maximum altitude 21:55:43 10° 304° (NW) 2,671 6.8 -48.2°
Drops below altitude 10° 21:56:35 10° 313° (NW) 2,689 6.8 -48.3°
Sets 22:02:09 0° 354° (N) 3,625 7.5 -48.9°
